owner,sensor,date,latitude,longitude,vertical_datum,sea_water_practical_salinity,qcFlag 
ENP,ioos.station.NOAA.NDBC:LBSF1:1,2015-03-01T00:00:00Z,25.2140,-80.4320,1.5,33.02,1111122 
ENP,ioos.station.NOAA.NDBC:LBSF1:1,2015-03-01T01:00:00Z,25.2140,-80.4320,1.5,33.03,1111122 
ENP,ioos.station.NOAA.NDBC:LBSF1:1,2015-03-01T02:00:00Z,25.2140,-80.4320,1.5,33.03,1111122 
ENP,ioos.station.NOAA.NDBC:LBSF1:1,2015-03-01T04:00:00Z,25.2140,-80.4320,1.5,33.05,1111122 
ENP,ioos.station.NOAA.NDBC:LBSF1:1,2015-03-01T05:00:00Z,25.2140,-80.4320,1.5,33.08,1111122 
ENP,ioos.station.NOAA.NDBC:LBSF1:1,2015-03-01T06:00:00Z,25.2140,-80.4320,1.5,33.07,1111122 
ENP,ioos.station.NOAA.NDBC:LBSF1:1,2015-03-01T07:00:00Z,25.2140,-80.4320,1.5,33.09,1111122 
ENP,ioos.station.NOAA.NDBC:LBSF1:1,2015-03-01T08:00:00Z,25.2140,-80.4320,1.5,33.09,1111122 
ENP,ioos.station.NOAA.NDBC:LBSF1:1,2015-03-01T09:00:00Z,25.2140,-80.4320,1.5,33.1,1111122 
ENP,ioos.station.NOAA.NDBC:LBSF1:1,2015-03-01T10:00:00Z,25.2140,-80.4320,1.5,33.09,1111122 
ENP,ioos.station.NOAA.NDBC:LBSF1:1,2015-03-01T11:00:00Z,25.2140,-80.4320,1.5,33.1,1111122 
ENP,ioos.station.NOAA.NDBC:LBSF1:1,2015-03-01T13:00:00Z,25.2140,-80.4320,1.5,33.11,1111122 
ENP,ioos.station.NOAA.NDBC:LBSF1:1,2015-03-01T14:00:00Z,25.2140,-80.4320,1.5,33.12,1111122 
ENP,ioos.station.NOAA.NDBC:LBSF1:1,2015-03-09T23:00:00Z,25.2140,-80.4320,1.5,31.87,1111122 
ENP,ioos.station.NOAA.NDBC:LBSF1:1,2015-03-10T00:00:00Z,25.2140,-80.4320,1.5,31.89,1111122 
ENP,ioos.station.NOAA.NDBC:LBSF1:1,2015-03-10T02:00:00Z,25.2140,-80.4320,1.5,31.88,1111122 
ENP,ioos.station.NOAA.NDBC:LBSF1:1,2015-03-10T04:00:00Z,25.2140,-80.4320,1.5,31.89,1111122 
ENP,ioos.station.NOAA.NDBC:LBSF1:1,2015-03-10T06:00:00Z,25.2140,-80.4320,1.5,31.86,1111122 
ENP,ioos.station.NOAA.NDBC:LBSF1:1,2015-03-10T07:00:00Z,25.2140,-80.4320,1.5,31.89,1111122 
ENP,ioos.station.NOAA.NDBC:LBSF1:1,2015-03-10T09:00:00Z,25.2140,-80.4320,1.5,31.89,1111122 
ENP,ioos.station.NOAA.NDBC:LBSF1:1,2015-03-10T10:00:00Z,25.2140,-80.4320,1.5,31.88,1111122 
ENP,ioos.station.NOAA.NDBC:LBSF1:1,2015-03-10T12:00:00Z,25.2140,-80.4320,1.5,31.88,1111122 
ENP,ioos.station.NOAA.NDBC:LBSF1:1,2015-03-10T13:00:00Z,25.2140,-80.4320,1.5,31.87,1111122 
ENP,ioos.station.NOAA.NDBC:LBSF1:1,2015-03-10T14:00:00Z,25.2140,-80.4320,1.5,31.88,1111122 
ENP,ioos.station.NOAA.NDBC:LBSF1:1,2015-03-10T15:00:00Z,25.2140,-80.4320,1.5,31.9,1111122 
ENP,ioos.station.NOAA.NDBC:LBSF1:1,2015-03-10T16:00:00Z,25.2140,-80.4320,1.5,31.95,1111122 
ENP,ioos.station.NOAA.NDBC:LBSF1:1,2015-03-10T17:00:00Z,25.2140,-80.4320,1.5,32.01,1111122 
ENP,ioos.station.NOAA.NDBC:LBSF1:1,2015-03-10T18:00:00Z,25.2140,-80.4320,1.5,32.02,1111122 
ENP,ioos.station.NOAA.NDBC:LBSF1:1,2015-03-10T19:00:00Z,25.2140,-80.4320,1.5,32.03,1111122 
ENP,ioos.station.NOAA.NDBC:LBSF1:1,2015-03-10T23:00:00Z,25.2140,-80.4320,1.5,32.01,1111122 
ENP,ioos.station.NOAA.NDBC:LBSF1:1,2015-03-11T00:00:00Z,25.2140,-80.4320,1.5,32.0,1111122 
ENP,ioos.station.NOAA.NDBC:LBSF1:1,2015-03-11T01:00:00Z,25.2140,-80.4320,1.5,31.98,1111122 
ENP,ioos.station.NOAA.NDBC:LBSF1:1,2015-03-11T02:00:00Z,25.2140,-80.4320,1.5,31.96,1111122 
ENP,ioos.station.NOAA.NDBC:LBSF1:1,2015-03-11T04:00:00Z,25.2140,-80.4320,1.5,31.96,1111122 
ENP,ioos.station.NOAA.NDBC:LBSF1:1,2015-03-11T06:00:00Z,25.2140,-80.4320,1.5,31.96,1111122 
ENP,ioos.station.NOAA.NDBC:LBSF1:1,2015-03-11T07:00:00Z,25.2140,-80.4320,1.5,31.97,1111122 
ENP,ioos.station.NOAA.NDBC:LBSF1:1,2015-03-11T08:00:00Z,25.2140,-80.4320,1.5,31.98,1111122 
ENP,ioos.station.NOAA.NDBC:LBSF1:1,2015-03-11T09:00:00Z,25.2140,-80.4320,1.5,32.01,1111122 
ENP,ioos.station.NOAA.NDBC:LBSF1:1,2015-03-11T10:00:00Z,25.2140,-80.4320,1.5,32.02,1111122 
ENP,ioos.station.NOAA.NDBC:LBSF1:1,2015-03-11T11:00:00Z,25.2140,-80.4320,1.5,32.03,1111122 
ENP,ioos.station.NOAA.NDBC:LBSF1:1,2015-03-11T12:00:00Z,25.2140,-80.4320,1.5,32.03,1111122 
ENP,ioos.station.NOAA.NDBC:LBSF1:1,2015-03-11T13:00:00Z,25.2140,-80.4320,1.5,32.03,1111122 
ENP,ioos.station.NOAA.NDBC:LBSF1:1,2015-03-11T14:00:00Z,25.2140,-80.4320,1.5,32.03,1111122 
ENP,ioos.station.NOAA.NDBC:LBSF1:1,2015-03-11T15:00:00Z,25.2140,-80.4320,1.5,32.03,1111122 
ENP,ioos.station.NOAA.NDBC:LBSF1:1,2015-03-11T16:00:00Z,25.2140,-80.4320,1.5,32.04,1111122 
ENP,ioos.station.NOAA.NDBC:LBSF1:1,2015-03-11T17:00:00Z,25.2140,-80.4320,1.5,32.06,1111122 
ENP,ioos.station.NOAA.NDBC:LBSF1:1,2015-03-11T18:00:00Z,25.2140,-80.4320,1.5,32.13,1111122 
ENP,ioos.station.NOAA.NDBC:LBSF1:1,2015-03-11T20:00:00Z,25.2140,-80.4320,1.5,32.21,1111122 
ENP,ioos.station.NOAA.NDBC:LBSF1:1,2015-03-11T21:00:00Z,25.2140,-80.4320,1.5,32.23,1111122 
ENP,ioos.station.NOAA.NDBC:LBSF1:1,2015-03-11T22:00:00Z,25.2140,-80.4320,1.5,32.23,1111122 
ENP,ioos.station.NOAA.NDBC:LBSF1:1,2015-03-11T23:00:00Z,25.2140,-80.4320,1.5,32.21,1111122 
ENP,ioos.station.NOAA.NDBC:LBSF1:1,2015-03-12T00:00:00Z,25.2140,-80.4320,1.5,32.21,1111122 
ENP,ioos.station.NOAA.NDBC:LBSF1:1,2015-03-12T01:00:00Z,25.2140,-80.4320,1.5,32.2,1111122 
ENP,ioos.station.NOAA.NDBC:LBSF1:1,2015-03-12T02:00:00Z,25.2140,-80.4320,1.5,32.2,1111122 
ENP,ioos.station.NOAA.NDBC:LBSF1:1,2015-03-12T04:00:00Z,25.2140,-80.4320,1.5,32.2,1111122 
ENP,ioos.station.NOAA.NDBC:LBSF1:1,2015-03-12T06:00:00Z,25.2140,-80.4320,1.5,32.19,1111122 
ENP,ioos.station.NOAA.NDBC:LBSF1:1,2015-03-12T07:00:00Z,25.2140,-80.4320,1.5,32.19,1111122 
ENP,ioos.station.NOAA.NDBC:LBSF1:1,2015-03-12T08:00:00Z,25.2140,-80.4320,1.5,32.15,1111122 
ENP,ioos.station.NOAA.NDBC:LBSF1:1,2015-03-12T09:00:00Z,25.2140,-80.4320,1.5,32.14,1111122 
ENP,ioos.station.NOAA.NDBC:LBSF1:1,2015-03-12T10:00:00Z,25.2140,-80.4320,1.5,32.15,1111122 
ENP,ioos.station.NOAA.NDBC:LBSF1:1,2015-03-12T11:00:00Z,25.2140,-80.4320,1.5,32.16,1111122 
ENP,ioos.station.NOAA.NDBC:LBSF1:1,2015-03-12T12:00:00Z,25.2140,-80.4320,1.5,32.16,1111122 
ENP,ioos.station.NOAA.NDBC:LBSF1:1,2015-03-12T13:00:00Z,25.2140,-80.4320,1.5,32.16,1111122 
ENP,ioos.station.NOAA.NDBC:LBSF1:1,2015-03-12T14:00:00Z,25.2140,-80.4320,1.5,32.16,1111122 
ENP,ioos.station.NOAA.NDBC:LBSF1:1,2015-03-12T15:00:00Z,25.2140,-80.4320,1.5,32.14,1111122 
ENP,ioos.station.NOAA.NDBC:LBSF1:1,2015-03-12T16:00:00Z,25.2140,-80.4320,1.5,32.14,1111122 
ENP,ioos.station.NOAA.NDBC:LBSF1:1,2015-03-12T17:00:00Z,25.2140,-80.4320,1.5,32.13,1111122 
ENP,ioos.station.NOAA.NDBC:LBSF1:1,2015-03-12T19:00:00Z,25.2140,-80.4320,1.5,32.14,1111122 
ENP,ioos.station.NOAA.NDBC:LBSF1:1,2015-03-12T20:00:00Z,25.2140,-80.4320,1.5,32.1,1111122 
ENP,ioos.station.NOAA.NDBC:LBSF1:1,2015-03-12T22:00:00Z,25.2140,-80.4320,1.5,32.09,1111122 
ENP,ioos.station.NOAA.NDBC:LBSF1:1,2015-03-12T23:00:00Z,25.2140,-80.4320,1.5,32.09,1111122 
ENP,ioos.station.NOAA.NDBC:LBSF1:1,2015-03-13T00:00:00Z,25.2140,-80.4320,1.5,32.1,1111122 
ENP,ioos.station.NOAA.NDBC:LBSF1:1,2015-03-13T02:00:00Z,25.2140,-80.4320,1.5,32.12,1111122 
ENP,ioos.station.NOAA.NDBC:LBSF1:1,2015-03-13T04:00:00Z,25.2140,-80.4320,1.5,32.17,1111122 
ENP,ioos.station.NOAA.NDBC:LBSF1:1,2015-03-13T06:00:00Z,25.2140,-80.4320,1.5,32.17,1111122 
ENP,ioos.station.NOAA.NDBC:LBSF1:1,2015-03-13T07:00:00Z,25.2140,-80.4320,1.5,32.17,1111122 
ENP,ioos.station.NOAA.NDBC:LBSF1:1,2015-03-13T08:00:00Z,25.2140,-80.4320,1.5,32.16,1111122 
ENP,ioos.station.NOAA.NDBC:LBSF1:1,2015-03-13T09:00:00Z,25.2140,-80.4320,1.5,32.14,1111122 
ENP,ioos.station.NOAA.NDBC:LBSF1:1,2015-03-13T10:00:00Z,25.2140,-80.4320,1.5,32.13,1111122 
ENP,ioos.station.NOAA.NDBC:LBSF1:1,2015-03-13T11:00:00Z,25.2140,-80.4320,1.5,32.14,1111122 
ENP,ioos.station.NOAA.NDBC:LBSF1:1,2015-03-13T12:00:00Z,25.2140,-80.4320,1.5,32.14,1111122 
ENP,ioos.station.NOAA.NDBC:LBSF1:1,2015-03-13T13:00:00Z,25.2140,-80.4320,1.5,32.15,1111122 
ENP,ioos.station.NOAA.NDBC:LBSF1:1,2015-03-13T14:00:00Z,25.2140,-80.4320,1.5,32.17,1111122 
ENP,ioos.station.NOAA.NDBC:LBSF1:1,2015-03-13T15:00:00Z,25.2140,-80.4320,1.5,32.19,1111122 
ENP,ioos.station.NOAA.NDBC:LBSF1:1,2015-03-13T16:00:00Z,25.2140,-80.4320,1.5,32.2,1111122 
ENP,ioos.station.NOAA.NDBC:LBSF1:1,2015-03-13T17:00:00Z,25.2140,-80.4320,1.5,32.21,1111122 
ENP,ioos.station.NOAA.NDBC:LBSF1:1,2015-03-13T18:00:00Z,25.2140,-80.4320,1.5,32.23,1111122 
ENP,ioos.station.NOAA.NDBC:LBSF1:1,2015-03-13T19:00:00Z,25.2140,-80.4320,1.5,32.25,1111122 
ENP,ioos.station.NOAA.NDBC:LBSF1:1,2015-03-13T20:00:00Z,25.2140,-80.4320,1.5,32.27,1111122 
ENP,ioos.station.NOAA.NDBC:LBSF1:1,2015-03-13T21:00:00Z,25.2140,-80.4320,1.5,32.28,1111122 
ENP,ioos.station.NOAA.NDBC:LBSF1:1,2015-03-13T22:00:00Z,25.2140,-80.4320,1.5,32.28,1111122 
ENP,ioos.station.NOAA.NDBC:LBSF1:1,2015-03-13T23:00:00Z,25.2140,-80.4320,1.5,32.29,1111122 
ENP,ioos.station.NOAA.NDBC:LBSF1:1,2015-03-14T00:00:00Z,25.2140,-80.4320,1.5,32.3,1111122 
ENP,ioos.station.NOAA.NDBC:LBSF1:1,2015-03-14T01:00:00Z,25.2140,-80.4320,1.5,32.3,1111122 
ENP,ioos.station.NOAA.NDBC:LBSF1:1,2015-03-14T02:00:00Z,25.2140,-80.4320,1.5,32.31,1111122 
ENP,ioos.station.NOAA.NDBC:LBSF1:1,2015-03-14T03:00:00Z,25.2140,-80.4320,1.5,32.32,1111122 
ENP,ioos.station.NOAA.NDBC:LBSF1:1,2015-03-14T04:00:00Z,25.2140,-80.4320,1.5,32.32,1111122 
ENP,ioos.station.NOAA.NDBC:LBSF1:1,2015-03-14T05:00:00Z,25.2140,-80.4320,1.5,32.33,1111122 
ENP,ioos.station.NOAA.NDBC:LBSF1:1,2015-03-14T06:00:00Z,25.2140,-80.4320,1.5,32.33,1111122 
ENP,ioos.station.NOAA.NDBC:LBSF1:1,2015-03-14T07:00:00Z,25.2140,-80.4320,1.5,32.33,1111122 
ENP,ioos.station.NOAA.NDBC:LBSF1:1,2015-03-14T08:00:00Z,25.2140,-80.4320,1.5,32.33,1111122 
ENP,ioos.station.NOAA.NDBC:LBSF1:1,2015-03-14T09:00:00Z,25.2140,-80.4320,1.5,32.33,1111122 
ENP,ioos.station.NOAA.NDBC:LBSF1:1,2015-03-14T10:00:00Z,25.2140,-80.4320,1.5,32.33,1111122 
ENP,ioos.station.NOAA.NDBC:LBSF1:1,2015-03-14T11:00:00Z,25.2140,-80.4320,1.5,32.35,1111122 
ENP,ioos.station.NOAA.NDBC:LBSF1:1,2015-03-14T13:00:00Z,25.2140,-80.4320,1.5,32.35,1111122 
ENP,ioos.station.NOAA.NDBC:LBSF1:1,2015-03-14T14:00:00Z,25.2140,-80.4320,1.5,32.33,1111122 
ENP,ioos.station.NOAA.NDBC:LBSF1:1,2015-03-14T16:00:00Z,25.2140,-80.4320,1.5,32.33,1111122 
ENP,ioos.station.NOAA.NDBC:LBSF1:1,2015-03-14T17:00:00Z,25.2140,-80.4320,1.5,32.34,1111122 
ENP,ioos.station.NOAA.NDBC:LBSF1:1,2015-03-14T18:00:00Z,25.2140,-80.4320,1.5,32.36,1111122 
ENP,ioos.station.NOAA.NDBC:LBSF1:1,2015-03-14T19:00:00Z,25.2140,-80.4320,1.5,32.38,1111122 
ENP,ioos.station.NOAA.NDBC:LBSF1:1,2015-03-14T20:00:00Z,25.2140,-80.4320,1.5,32.39,1111122 
ENP,ioos.station.NOAA.NDBC:LBSF1:1,2015-03-14T21:00:00Z,25.2140,-80.4320,1.5,32.39,1111122 
ENP,ioos.station.NOAA.NDBC:LBSF1:1,2015-03-14T22:00:00Z,25.2140,-80.4320,1.5,32.4,1111122 
ENP,ioos.station.NOAA.NDBC:LBSF1:1,2015-03-14T23:00:00Z,25.2140,-80.4320,1.5,32.41,1111122 
ENP,ioos.station.NOAA.NDBC:LBSF1:1,2015-03-15T00:00:00Z,25.2140,-80.4320,1.5,32.44,1111122 
ENP,ioos.station.NOAA.NDBC:LBSF1:1,2015-03-15T01:00:00Z,25.2140,-80.4320,1.5,32.46,1111122 
ENP,ioos.station.NOAA.NDBC:LBSF1:1,2015-03-15T02:00:00Z,25.2140,-80.4320,1.5,32.46,1111122 
ENP,ioos.station.NOAA.NDBC:LBSF1:1,2015-03-15T04:00:00Z,25.2140,-80.4320,1.5,32.46,1111122 
ENP,ioos.station.NOAA.NDBC:LBSF1:1,2015-03-15T05:00:00Z,25.2140,-80.4320,1.5,32.46,1111122 
ENP,ioos.station.NOAA.NDBC:LBSF1:1,2015-03-15T06:00:00Z,25.2140,-80.4320,1.5,32.44,1111122 
ENP,ioos.station.NOAA.NDBC:LBSF1:1,2015-03-15T07:00:00Z,25.2140,-80.4320,1.5,32.45,1111122 
ENP,ioos.station.NOAA.NDBC:LBSF1:1,2015-03-15T08:00:00Z,25.2140,-80.4320,1.5,32.44,1111122 
ENP,ioos.station.NOAA.NDBC:LBSF1:1,2015-03-15T11:00:00Z,25.2140,-80.4320,1.5,32.43,1111122 
ENP,ioos.station.NOAA.NDBC:LBSF1:1,2015-03-15T13:00:00Z,25.2140,-80.4320,1.5,32.43,1111122 
ENP,ioos.station.NOAA.NDBC:LBSF1:1,2015-03-15T14:00:00Z,25.2140,-80.4320,1.5,32.43,1111122 
ENP,ioos.station.NOAA.NDBC:LBSF1:1,2015-03-15T15:00:00Z,25.2140,-80.4320,1.5,32.44,1111122 
ENP,ioos.station.NOAA.NDBC:LBSF1:1,2015-03-15T16:00:00Z,25.2140,-80.4320,1.5,32.45,1111122 
ENP,ioos.station.NOAA.NDBC:LBSF1:1,2015-03-15T17:00:00Z,25.2140,-80.4320,1.5,32.45,1111122 
ENP,ioos.station.NOAA.NDBC:LBSF1:1,2015-03-15T18:00:00Z,25.2140,-80.4320,1.5,32.47,1111122 
ENP,ioos.station.NOAA.NDBC:LBSF1:1,2015-03-15T19:00:00Z,25.2140,-80.4320,1.5,32.5,1111122 
ENP,ioos.station.NOAA.NDBC:LBSF1:1,2015-03-15T20:00:00Z,25.2140,-80.4320,1.5,32.49,1111122 
ENP,ioos.station.NOAA.NDBC:LBSF1:1,2015-03-15T21:00:00Z,25.2140,-80.4320,1.5,32.5,1111122 
ENP,ioos.station.NOAA.NDBC:LBSF1:1,2015-03-15T22:00:00Z,25.2140,-80.4320,1.5,32.5,1111122 
ENP,ioos.station.NOAA.NDBC:LBSF1:1,2015-03-15T23:00:00Z,25.2140,-80.4320,1.5,32.5,1111122 
ENP,ioos.station.NOAA.NDBC:LBSF1:1,2015-03-16T00:00:00Z,25.2140,-80.4320,1.5,32.5,1111122 
ENP,ioos.station.NOAA.NDBC:LBSF1:1,2015-03-16T01:00:00Z,25.2140,-80.4320,1.5,32.47,1111122 
ENP,ioos.station.NOAA.NDBC:LBSF1:1,2015-03-16T02:00:00Z,25.2140,-80.4320,1.5,32.45,1111122 
ENP,ioos.station.NOAA.NDBC:LBSF1:1,2015-03-16T04:00:00Z,25.2140,-80.4320,1.5,32.46,1111122 
ENP,ioos.station.NOAA.NDBC:LBSF1:1,2015-03-16T06:00:00Z,25.2140,-80.4320,1.5,32.45,1111122 
ENP,ioos.station.NOAA.NDBC:LBSF1:1,2015-03-16T07:00:00Z,25.2140,-80.4320,1.5,32.44,1111122 
ENP,ioos.station.NOAA.NDBC:LBSF1:1,2015-03-16T08:00:00Z,25.2140,-80.4320,1.5,32.47,1111122 
ENP,ioos.station.NOAA.NDBC:LBSF1:1,2015-03-16T09:00:00Z,25.2140,-80.4320,1.5,32.5,1111122 
ENP,ioos.station.NOAA.NDBC:LBSF1:1,2015-03-16T10:00:00Z,25.2140,-80.4320,1.5,32.51,1111122 
ENP,ioos.station.NOAA.NDBC:LBSF1:1,2015-03-16T11:00:00Z,25.2140,-80.4320,1.5,32.52,1111122 
ENP,ioos.station.NOAA.NDBC:LBSF1:1,2015-03-16T12:00:00Z,25.2140,-80.4320,1.5,32.52,1111122 
ENP,ioos.station.NOAA.NDBC:LBSF1:1,2015-03-16T13:00:00Z,25.2140,-80.4320,1.5,32.52,1111122 
ENP,ioos.station.NOAA.NDBC:LBSF1:1,2015-03-16T14:00:00Z,25.2140,-80.4320,1.5,32.52,1111122 
ENP,ioos.station.NOAA.NDBC:LBSF1:1,2015-03-16T15:00:00Z,25.2140,-80.4320,1.5,32.52,1111122 
ENP,ioos.station.NOAA.NDBC:LBSF1:1,2015-03-16T16:00:00Z,25.2140,-80.4320,1.5,32.53,1111122 
ENP,ioos.station.NOAA.NDBC:LBSF1:1,2015-03-16T17:00:00Z,25.2140,-80.4320,1.5,32.55,1111122 
ENP,ioos.station.NOAA.NDBC:LBSF1:1,2015-03-16T18:00:00Z,25.2140,-80.4320,1.5,32.57,1111122 
ENP,ioos.station.NOAA.NDBC:LBSF1:1,2015-03-16T20:00:00Z,25.2140,-80.4320,1.5,32.57,1111122 
ENP,ioos.station.NOAA.NDBC:LBSF1:1,2015-03-16T21:00:00Z,25.2140,-80.4320,1.5,32.59,1111122 
ENP,ioos.station.NOAA.NDBC:LBSF1:1,2015-03-16T22:00:00Z,25.2140,-80.4320,1.5,32.58,1111122 
ENP,ioos.station.NOAA.NDBC:LBSF1:1,2015-03-16T23:00:00Z,25.2140,-80.4320,1.5,32.57,1111122 
ENP,ioos.station.NOAA.NDBC:LBSF1:1,2015-03-17T00:00:00Z,25.2140,-80.4320,1.5,32.57,1111122 
ENP,ioos.station.NOAA.NDBC:LBSF1:1,2015-03-17T01:00:00Z,25.2140,-80.4320,1.5,32.57,1111122 
ENP,ioos.station.NOAA.NDBC:LBSF1:1,2015-03-17T02:00:00Z,25.2140,-80.4320,1.5,32.57,1111122 
ENP,ioos.station.NOAA.NDBC:LBSF1:1,2015-03-17T04:00:00Z,25.2140,-80.4320,1.5,32.56,1111122 
ENP,ioos.station.NOAA.NDBC:LBSF1:1,2015-03-17T05:00:00Z,25.2140,-80.4320,1.5,32.55,1111122 
ENP,ioos.station.NOAA.NDBC:LBSF1:1,2015-03-17T06:00:00Z,25.2140,-80.4320,1.5,32.55,1111122 
ENP,ioos.station.NOAA.NDBC:LBSF1:1,2015-03-17T07:00:00Z,25.2140,-80.4320,1.5,32.55,1111122 
ENP,ioos.station.NOAA.NDBC:LBSF1:1,2015-03-17T08:00:00Z,25.2140,-80.4320,1.5,32.55,1111122 
ENP,ioos.station.NOAA.NDBC:LBSF1:1,2015-03-17T09:00:00Z,25.2140,-80.4320,1.5,32.55,1111122 
ENP,ioos.station.NOAA.NDBC:LBSF1:1,2015-03-17T10:00:00Z,25.2140,-80.4320,1.5,32.54,1111122 
ENP,ioos.station.NOAA.NDBC:LBSF1:1,2015-03-17T11:00:00Z,25.2140,-80.4320,1.5,32.54,1111122 
ENP,ioos.station.NOAA.NDBC:LBSF1:1,2015-03-17T12:00:00Z,25.2140,-80.4320,1.5,32.53,1111122 
ENP,ioos.station.NOAA.NDBC:LBSF1:1,2015-03-17T13:00:00Z,25.2140,-80.4320,1.5,32.55,1111122 
ENP,ioos.station.NOAA.NDBC:LBSF1:1,2015-03-17T14:00:00Z,25.2140,-80.4320,1.5,32.53,1111122 
ENP,ioos.station.NOAA.NDBC:LBSF1:1,2015-03-17T15:00:00Z,25.2140,-80.4320,1.5,32.54,1111122 
ENP,ioos.station.NOAA.NDBC:LBSF1:1,2015-03-17T16:00:00Z,25.2140,-80.4320,1.5,32.55,1111122 
ENP,ioos.station.NOAA.NDBC:LBSF1:1,2015-03-17T17:00:00Z,25.2140,-80.4320,1.5,32.57,1111122 
ENP,ioos.station.NOAA.NDBC:LBSF1:1,2015-03-17T18:00:00Z,25.2140,-80.4320,1.5,32.6,1111122 
ENP,ioos.station.NOAA.NDBC:LBSF1:1,2015-03-17T19:00:00Z,25.2140,-80.4320,1.5,32.66,1111122 
ENP,ioos.station.NOAA.NDBC:LBSF1:1,2015-03-17T20:00:00Z,25.2140,-80.4320,1.5,32.68,1111122 
ENP,ioos.station.NOAA.NDBC:LBSF1:1,2015-03-17T21:00:00Z,25.2140,-80.4320,1.5,32.73,1111122 
ENP,ioos.station.NOAA.NDBC:LBSF1:1,2015-03-17T22:00:00Z,25.2140,-80.4320,1.5,32.75,1111122 
ENP,ioos.station.NOAA.NDBC:LBSF1:1,2015-03-17T23:00:00Z,25.2140,-80.4320,1.5,32.75,1111122 
ENP,ioos.station.NOAA.NDBC:LBSF1:1,2015-03-18T00:00:00Z,25.2140,-80.4320,1.5,32.75,1111122 
ENP,ioos.station.NOAA.NDBC:LBSF1:1,2015-03-18T01:00:00Z,25.2140,-80.4320,1.5,32.76,1111122 
ENP,ioos.station.NOAA.NDBC:LBSF1:1,2015-03-18T02:00:00Z,25.2140,-80.4320,1.5,32.73,1111122 
ENP,ioos.station.NOAA.NDBC:LBSF1:1,2015-03-18T04:00:00Z,25.2140,-80.4320,1.5,32.71,1111122 
ENP,ioos.station.NOAA.NDBC:LBSF1:1,2015-03-18T06:00:00Z,25.2140,-80.4320,1.5,32.69,1111122 
ENP,ioos.station.NOAA.NDBC:LBSF1:1,2015-03-18T07:00:00Z,25.2140,-80.4320,1.5,32.68,1111122 
ENP,ioos.station.NOAA.NDBC:LBSF1:1,2015-03-18T08:00:00Z,25.2140,-80.4320,1.5,32.68,1111122 
ENP,ioos.station.NOAA.NDBC:LBSF1:1,2015-03-18T09:00:00Z,25.2140,-80.4320,1.5,32.69,1111122 
ENP,ioos.station.NOAA.NDBC:LBSF1:1,2015-03-18T10:00:00Z,25.2140,-80.4320,1.5,32.68,1111122 
ENP,ioos.station.NOAA.NDBC:LBSF1:1,2015-03-18T11:00:00Z,25.2140,-80.4320,1.5,32.68,1111122 
ENP,ioos.station.NOAA.NDBC:LBSF1:1,2015-03-18T12:00:00Z,25.2140,-80.4320,1.5,32.68,1111122 
ENP,ioos.station.NOAA.NDBC:LBSF1:1,2015-03-18T13:00:00Z,25.2140,-80.4320,1.5,32.68,1111122 
ENP,ioos.station.NOAA.NDBC:LBSF1:1,2015-03-18T14:00:00Z,25.2140,-80.4320,1.5,32.68,1111122 
ENP,ioos.station.NOAA.NDBC:LBSF1:1,2015-03-18T15:00:00Z,25.2140,-80.4320,1.5,32.69,1111122 
ENP,ioos.station.NOAA.NDBC:LBSF1:1,2015-03-23T13:00:00Z,25.2140,-80.4320,1.5,33.22,1111122 
ENP,ioos.station.NOAA.NDBC:LBSF1:1,2015-03-23T14:00:00Z,25.2140,-80.4320,1.5,33.22,1111122 
ENP,ioos.station.NOAA.NDBC:LBSF1:1,2015-03-23T15:00:00Z,25.2140,-80.4320,1.5,33.19,1111122 
ENP,ioos.station.NOAA.NDBC:LBSF1:1,2015-03-23T16:00:00Z,25.2140,-80.4320,1.5,33.18,1111122 
ENP,ioos.station.NOAA.NDBC:LBSF1:1,2015-03-23T17:00:00Z,25.2140,-80.4320,1.5,33.2,1111122 
ENP,ioos.station.NOAA.NDBC:LBSF1:1,2015-03-23T18:00:00Z,25.2140,-80.4320,1.5,33.23,1111122 
ENP,ioos.station.NOAA.NDBC:LBSF1:1,2015-03-23T19:00:00Z,25.2140,-80.4320,1.5,33.27,1111122 
ENP,ioos.station.NOAA.NDBC:LBSF1:1,2015-03-23T20:00:00Z,25.2140,-80.4320,1.5,33.3,1111122 
ENP,ioos.station.NOAA.NDBC:LBSF1:1,2015-03-23T21:00:00Z,25.2140,-80.4320,1.5,33.29,1111122 
ENP,ioos.station.NOAA.NDBC:LBSF1:1,2015-03-23T22:00:00Z,25.2140,-80.4320,1.5,33.3,1111122 
ENP,ioos.station.NOAA.NDBC:LBSF1:1,2015-03-23T23:00:00Z,25.2140,-80.4320,1.5,33.28,1111122 
ENP,ioos.station.NOAA.NDBC:LBSF1:1,2015-03-24T00:00:00Z,25.2140,-80.4320,1.5,33.24,1111122 
ENP,ioos.station.NOAA.NDBC:LBSF1:1,2015-03-24T01:00:00Z,25.2140,-80.4320,1.5,33.22,1111122 
ENP,ioos.station.NOAA.NDBC:LBSF1:1,2015-03-24T02:00:00Z,25.2140,-80.4320,1.5,33.22,1111122 
ENP,ioos.station.NOAA.NDBC:LBSF1:1,2015-03-24T04:00:00Z,25.2140,-80.4320,1.5,33.22,1111122 
ENP,ioos.station.NOAA.NDBC:LBSF1:1,2015-03-24T06:00:00Z,25.2140,-80.4320,1.5,33.22,1111122 
ENP,ioos.station.NOAA.NDBC:LBSF1:1,2015-03-24T07:00:00Z,25.2140,-80.4320,1.5,33.21,1111122 
ENP,ioos.station.NOAA.NDBC:LBSF1:1,2015-03-24T09:00:00Z,25.2140,-80.4320,1.5,33.21,1111122 
ENP,ioos.station.NOAA.NDBC:LBSF1:1,2015-03-24T10:00:00Z,25.2140,-80.4320,1.5,33.2,1111122 
ENP,ioos.station.NOAA.NDBC:LBSF1:1,2015-03-24T11:00:00Z,25.2140,-80.4320,1.5,33.2,1111122 
ENP,ioos.station.NOAA.NDBC:LBSF1:1,2015-03-24T12:00:00Z,25.2140,-80.4320,1.5,33.2,1111122 
ENP,ioos.station.NOAA.NDBC:LBSF1:1,2015-03-24T13:00:00Z,25.2140,-80.4320,1.5,33.2,1111122 
ENP,ioos.station.NOAA.NDBC:LBSF1:1,2015-03-24T14:00:00Z,25.2140,-80.4320,1.5,33.2,1111122 
ENP,ioos.station.NOAA.NDBC:LBSF1:1,2015-03-24T15:00:00Z,25.2140,-80.4320,1.5,33.21,1111122 
ENP,ioos.station.NOAA.NDBC:LBSF1:1,2015-03-24T16:00:00Z,25.2140,-80.4320,1.5,33.22,1111122 
ENP,ioos.station.NOAA.NDBC:LBSF1:1,2015-03-24T17:00:00Z,25.2140,-80.4320,1.5,33.24,1111122 
ENP,ioos.station.NOAA.NDBC:LBSF1:1,2015-03-24T18:00:00Z,25.2140,-80.4320,1.5,33.25,1111122 
ENP,ioos.station.NOAA.NDBC:LBSF1:1,2015-03-24T19:00:00Z,25.2140,-80.4320,1.5,33.26,1111122 
ENP,ioos.station.NOAA.NDBC:LBSF1:1,2015-03-24T20:00:00Z,25.2140,-80.4320,1.5,33.27,1111122 
ENP,ioos.station.NOAA.NDBC:LBSF1:1,2015-03-24T21:00:00Z,25.2140,-80.4320,1.5,33.29,1111122 
ENP,ioos.station.NOAA.NDBC:LBSF1:1,2015-03-24T22:00:00Z,25.2140,-80.4320,1.5,33.31,1111122 
ENP,ioos.station.NOAA.NDBC:LBSF1:1,2015-03-24T23:00:00Z,25.2140,-80.4320,1.5,33.31,1111122 
ENP,ioos.station.NOAA.NDBC:LBSF1:1,2015-03-25T00:00:00Z,25.2140,-80.4320,1.5,33.31,1111122 
ENP,ioos.station.NOAA.NDBC:LBSF1:1,2015-03-25T01:00:00Z,25.2140,-80.4320,1.5,33.31,1111122 
ENP,ioos.station.NOAA.NDBC:LBSF1:1,2015-03-25T02:00:00Z,25.2140,-80.4320,1.5,33.31,1111122 
ENP,ioos.station.NOAA.NDBC:LBSF1:1,2015-03-25T03:00:00Z,25.2140,-80.4320,1.5,33.31,1111122 
ENP,ioos.station.NOAA.NDBC:LBSF1:1,2015-03-25T07:00:00Z,25.2140,-80.4320,1.5,33.3,1111122 
ENP,ioos.station.NOAA.NDBC:LBSF1:1,2015-03-25T08:00:00Z,25.2140,-80.4320,1.5,33.31,1111122 
ENP,ioos.station.NOAA.NDBC:LBSF1:1,2015-03-25T09:00:00Z,25.2140,-80.4320,1.5,33.3,1111122 
ENP,ioos.station.NOAA.NDBC:LBSF1:1,2015-03-25T10:00:00Z,25.2140,-80.4320,1.5,33.3,1111122 
ENP,ioos.station.NOAA.NDBC:LBSF1:1,2015-03-25T11:00:00Z,25.2140,-80.4320,1.5,33.3,1111122 
ENP,ioos.station.NOAA.NDBC:LBSF1:1,2015-03-25T12:00:00Z,25.2140,-80.4320,1.5,33.3,1111122 
ENP,ioos.station.NOAA.NDBC:LBSF1:1,2015-03-25T13:00:00Z,25.2140,-80.4320,1.5,33.29,1111122 
ENP,ioos.station.NOAA.NDBC:LBSF1:1,2015-03-25T14:00:00Z,25.2140,-80.4320,1.5,33.3,1111122 
ENP,ioos.station.NOAA.NDBC:LBSF1:1,2015-03-25T15:00:00Z,25.2140,-80.4320,1.5,33.3,1111122 
ENP,ioos.station.NOAA.NDBC:LBSF1:1,2015-03-25T17:00:00Z,25.2140,-80.4320,1.5,33.32,1111122 
ENP,ioos.station.NOAA.NDBC:LBSF1:1,2015-03-25T18:00:00Z,25.2140,-80.4320,1.5,33.33,1111122 
ENP,ioos.station.NOAA.NDBC:LBSF1:1,2015-03-25T19:00:00Z,25.2140,-80.4320,1.5,33.36,1111122 
ENP,ioos.station.NOAA.NDBC:LBSF1:1,2015-03-25T20:00:00Z,25.2140,-80.4320,1.5,33.37,1111122 
ENP,ioos.station.NOAA.NDBC:LBSF1:1,2015-03-25T21:00:00Z,25.2140,-80.4320,1.5,33.4,1111122 
ENP,ioos.station.NOAA.NDBC:LBSF1:1,2015-03-25T22:00:00Z,25.2140,-80.4320,1.5,33.39,1111122 
ENP,ioos.station.NOAA.NDBC:LBSF1:1,2015-03-25T23:00:00Z,25.2140,-80.4320,1.5,33.39,1111122 
ENP,ioos.station.NOAA.NDBC:LBSF1:1,2015-03-26T01:00:00Z,25.2140,-80.4320,1.5,33.39,1111122 
ENP,ioos.station.NOAA.NDBC:LBSF1:1,2015-03-26T02:00:00Z,25.2140,-80.4320,1.5,33.4,1111122 
ENP,ioos.station.NOAA.NDBC:LBSF1:1,2015-03-26T04:00:00Z,25.2140,-80.4320,1.5,33.39,1111122 
ENP,ioos.station.NOAA.NDBC:LBSF1:1,2015-03-26T06:00:00Z,25.2140,-80.4320,1.5,33.39,1111122 
ENP,ioos.station.NOAA.NDBC:LBSF1:1,2015-03-26T07:00:00Z,25.2140,-80.4320,1.5,33.39,1111122 
ENP,ioos.station.NOAA.NDBC:LBSF1:1,2015-03-26T09:00:00Z,25.2140,-80.4320,1.5,33.39,1111122 
ENP,ioos.station.NOAA.NDBC:LBSF1:1,2015-03-26T10:00:00Z,25.2140,-80.4320,1.5,33.39,1111122 
ENP,ioos.station.NOAA.NDBC:LBSF1:1,2015-03-26T11:00:00Z,25.2140,-80.4320,1.5,33.39,1111122 
ENP,ioos.station.NOAA.NDBC:LBSF1:1,2015-03-26T12:00:00Z,25.2140,-80.4320,1.5,33.39,1111122 
ENP,ioos.station.NOAA.NDBC:LBSF1:1,2015-03-26T13:00:00Z,25.2140,-80.4320,1.5,33.39,1111122 
ENP,ioos.station.NOAA.NDBC:LBSF1:1,2015-03-26T14:00:00Z,25.2140,-80.4320,1.5,33.4,1111122 
ENP,ioos.station.NOAA.NDBC:LBSF1:1,2015-03-26T16:00:00Z,25.2140,-80.4320,1.5,33.41,1111122 
ENP,ioos.station.NOAA.NDBC:LBSF1:1,2015-03-26T17:00:00Z,25.2140,-80.4320,1.5,33.4,1111122 
ENP,ioos.station.NOAA.NDBC:LBSF1:1,2015-03-26T18:00:00Z,25.2140,-80.4320,1.5,33.44,1111122 
ENP,ioos.station.NOAA.NDBC:LBSF1:1,2015-03-26T19:00:00Z,25.2140,-80.4320,1.5,33.46,1111122 
ENP,ioos.station.NOAA.NDBC:LBSF1:1,2015-03-26T20:00:00Z,25.2140,-80.4320,1.5,33.48,1111122 